MOLNIYA 1-62

Last updated on Jan. 26, 2021, 8:12 a.m. UTC

1 15214U 84089A   21024.06566306 -.00001401  00000-0  29256-3 0  9997
2 15214  62.7136 100.7957 7404323 266.2767  14.9250  1.97955488234161
UTC
Height (km)
Latitude
Longitude
Inclination
Orbital Period
UTC large
Height (km)
Speed (km/s)
/
Latitude / Longitude
Inclination (degrees)
Orbital Period (minutes)
Azimuth
Elevation
Range (km)
Doppler Factor
iOS Compass Heading
iOS Angle

Next 30 passes for location: Hong Kong

Rise time Rise Azimuth (degrees) Set time Set Azimuth (degrees) Duration Max altitude (degrees)

No matching passes for this satellites